星链-32518 (STARLINK-32518)

导读

STARLINK-32518是美国太空探索技术公司星链计划中的一颗卫星,于2024年11月14日发射入轨。作为星链星座的组成部分,它主要用于为全球提供低延迟、高速率的宽带互联网服务,尤其服务偏远地区、移动载具等,进一步扩充了星链星座的全球覆盖能力与网络容量。

基本信息
目录编号:
61967
目录名称:
STARLINK-32518
国际标识:
2024-210J
轨道中心:
EARTH
卫星名称:
星链-32518
卫星全名:
星链-32518 (STARLINK-32518)
卫星状态:
在轨 (已飞行659 天)
发射日期:
2024-11-14 UTC
国别 :
美国 (US)
星等 :
--
轨道信息
数据来源 国际轨道数据 AOE轨道数据
星历时间 2026-09-03T09:24:14+0800
1天前
查看轨道信息
2026-08-30T07:00:00+0800
5天前
查看轨道信息
半长轴 6861.164km 6861.27km
偏心率 0.0001759 0.0000093
轨道倾角 43.004° 43.002°
近地点辐角 268.269° 197.416°
升交点赤经 251.245° 274.407°
平近点角 91.796° 268.273°
近地点 481.82km 483.069km
远地点 484.234km 483.197km
周期 94.266分钟 94.268分钟
每日圈数 15.275875 15.275522
详细信息
固有亮度:
5
最大亮度:
2.5
卫星平台:
Starlink V1.0
覆盖范围:
全球
运营商:
太空探索技术公司
运营商所在国:
美国
制造商(研发单位):
太空探索技术公司
制造商所在国:
美国
使用方式:
暂无
卫星简介
Starlink 计划是 SpaceX 推出的全球卫星互联网项目,通过发射低轨道卫星,为全球尤其是偏远地区提供高速、低延迟的互联网服务。自 2019 年起,Starlink 已部署数千颗卫星,旨在缩小全球数字鸿沟,推动互联网普及。该项目还为军事、航空等行业提供通信支持,带来广泛经济效益。
2D轨道图
3D轨道图
轨道高度分析图
轨道倾角分析图
轨道综合分析图
查看轨道综合分析图